Flag for U.S.A. Weather past 2 weeks in Springfield, Massachusetts, U.S.A.

Now
53 °F

Low clouds.


Feels Like: 50 °F
Forecast: 49 / 53 °F
Wind: 10 mph from Northeast

Location: Barnes Municipal Airport

Current Time: Oct 22, 2014 at 2:50:40 AM

Latest Report: Oct 22, 2014 at 1:53 AM


Visibility: 10 mi

Pressure: 29.98 "Hg

Humidity: 83%

Dew point: 48 °F

Location of SpringfieldLocation

Historic Weather in Springfield — Graph

°F

Springfield temperature yesterday

Maximum temperature yesterday: 61 °F (at 2:53 PM)
Minimum temperature yesterday: 44 °F (at 4:53 AM)
Average temperature yesterday: 52 °F

Past Weeks' High & Low Weather Summary

 TemperatureHumidityPressure
High78 °F (Oct 15, 1:53 PM)97% (Oct 9, 9:53 PM)30.36 "Hg (Oct 9, 9:53 PM)
Low31 °F (Oct 20, 3:53 AM)34% (Oct 9, 1:53 PM)29.51 "Hg (Oct 18, 2:53 PM)
Average56 °F76%29.97 "Hg
* Reported Oct 7 12:53 AM — Oct 22 12:53 AM, Springfield, Weather by CustomWeather, © 2014

Note: Actual official high and low records may vary slightly from our data, if they occured in-between our weather recording intervals... More about our weather records

Advertising

Springfield weather history for previous 24 hours

 ConditionsComfort  
Time TempWeatherWind HumidityBarometerVisibility
12:53 AM
Oct 22
53 °FOvercast.13 mph86%29.98 "Hg10 mi
11:53 PM
Oct 21
54 °FOvercast.9 mph83%29.98 "Hg10 mi
10:53 PM54 °FOvercast.14 mph83%29.98 "Hg10 mi
9:53 PM54 °FOvercast.13 mph83%29.97 "Hg10 mi
8:53 PM54 °FOvercast.10 mph80%29.96 "Hg10 mi
7:53 PM54 °FMostly cloudy.13 mph80%29.94 "Hg10 mi
6:53 PM54 °FScattered clouds.13 mph80%29.92 "Hg10 mi
5:53 PM56 °FPartly sunny.9 mph75%29.91 "Hg10 mi
4:53 PM58 °FBroken clouds.10 mph70%29.90 "Hg10 mi
3:53 PM59 °FPartly sunny.8 mph67%29.88 "Hg10 mi
2:53 PM61 °FPartly sunny.12 mph62%29.89 "Hg10 mi
1:53 PM60 °FMostly cloudy.7 mph62%29.91 "Hg10 mi
12:53 PM56 °FOvercast.8 mph70%29.93 "Hg10 mi
11:53 AM56 °FOvercast.9 mph67%29.95 "Hg10 mi
10:53 AM53 °FPartly sunny.6 mph72%29.95 "Hg10 mi
9:53 AM50 °FMostly cloudy.8 mph77%29.96 "Hg10 mi
8:53 AM48 °FMostly cloudy.5 mph80%29.97 "Hg10 mi
7:53 AM46 °FOvercast.6 mph83%29.96 "Hg10 mi
6:53 AM45 °FPassing clouds.6 mph86%29.94 "Hg10 mi
5:53 AM44 °FPassing clouds.3 mph89%29.94 "Hg10 mi
4:53 AM44 °FClear.No wind89%29.94 "Hg10 mi
3:53 AM45 °FPassing clouds.3 mph86%29.96 "Hg10 mi
2:53 AM45 °FPartly cloudy.No wind86%29.96 "Hg10 mi
Weather by CustomWeather, © 2014

See weather overviewHow to use our weather pages